Weather History for YBCS - November, 2010

Change the Weather History Date:

Wednesday, November 3, 2010

  Actual Average Record
Temperature  
Mean Temperature 78 °F -  
Max Temperature 82 °F 87 °F 93 °F (2000)
Min Temperature 73 °F 72 °F 63 °F (2012)
Cooling Degree Days 12    
Growing Degree Days 28 (Base 50)    
Moisture  
Dew Point 71 °F    
Average Humidity 81    
Maximum Humidity 94    
Minimum Humidity 62    
Precipitation  
Precipitation 0.12 in 0.14 in - ()
Sea Level Pressure  
Sea Level Pressure 29.88 in    
Wind  
Wind Speed 7 mph ()    
Max Wind Speed 14 mph    
Max Gust Speed -    
Visibility 7.0 miles    
Events Fog , Rain    
Averages and records for this station are not official NWS values.
T = Trace of Precipitation, MM = Missing Value Source: Averaged Metar Reports

Daily Weather History Graph

Daily Weather History Graph

Search for Another Location

Airport or City:

Trip Planner

Search our weather history database for the weather conditions in past years. The results will help you decide how hot, cold, wet, or windy it might be!

Date:

Astronomy

Nov. 03, 2010 Rise Set
Actual Time 5:38 AM AEST 6:22 PM AEST
Civil Twilight 5:15 AM AEST 6:45 PM AEST
Nautical Twilight 4:49 AM AEST 7:11 PM AEST
Astronomical Twilight 4:22 AM AEST 7:38 PM AEST
Moon 2:52 AM AEST 3:24 PM AEST
Length of Visible Light 13h 29m
Length of Day
12h 44m
Waning Crescent, 13% of the Moon is Illuminated
Nov 3
Waning Crescent
Nov 6
New
Nov 14
First Quarter
Nov 22
Full
Nov 29
Last Quarter

Hourly Weather History & Observations

Time (AEST) Temp. Heat Index Dew Point Humidity Pressure Visibility Wind Dir Wind Speed Gust Speed Precip Events Conditions
12:00 AM 76 °F - 70 °F 78% 29.91 in 12 mi South 6.9 mph - - Rain Light Rain Showers
12:00 AM 75.2 °F - 69.8 °F 83% 29.92 in 6.2 mi South 6.9 mph - N/A   Scattered Clouds
12:30 AM 77.0 °F - 69.8 °F 78% 29.89 in 6.2 mi South 8.1 mph - N/A   Scattered Clouds
1:00 AM 76 °F - 69 °F 75% 29.89 in - SSE 6.9 mph - -  
1:00 AM 77.0 °F - 69.8 °F 78% 29.89 in 6.2 mi SSE 6.9 mph - N/A   Scattered Clouds
1:30 AM 77.0 °F - 69.8 °F 78% 29.86 in 6.2 mi South 4.6 mph - N/A   Scattered Clouds
2:00 AM 75.2 °F - 69.8 °F 83% 29.86 in 6.2 mi SSE 5.8 mph - N/A   Partly Cloudy
2:30 AM 75.2 °F - 69.8 °F 83% 29.86 in 6.2 mi SSE 5.8 mph - N/A   Partly Cloudy
3:00 AM 75 °F - 71 °F 82% 29.85 in 12 mi SE 8.1 mph - -   Scattered Clouds
3:00 AM 75.2 °F - 69.8 °F 83% 29.83 in 6.2 mi SE 8.1 mph - N/A   Mostly Cloudy
3:30 AM 75.2 °F - 69.8 °F 83% 29.83 in 6.2 mi South 8.1 mph - N/A   Scattered Clouds
4:00 AM 76 °F - 70 °F 77% 29.85 in - SSE 6.9 mph - -  
4:00 AM 75.2 °F - 69.8 °F 83% 29.83 in 6.2 mi SSE 6.9 mph - N/A   Mostly Cloudy
4:30 AM 75.2 °F - 69.8 °F 83% 29.83 in 6.2 mi SSE 9.2 mph - N/A   Mostly Cloudy
5:00 AM 75.2 °F - 69.8 °F 83% 29.86 in 6.2 mi South 8.1 mph - N/A   Mostly Cloudy
5:30 AM 75.2 °F - 69.8 °F 83% 29.86 in 4.3 mi South 6.9 mph - N/A Fog , Rain Light Rain Showers
6:00 AM 75 °F - 71 °F 83% 29.87 in 12 mi South 8.1 mph - - Rain Light Rain Showers
6:00 AM 75.2 °F - 71.6 °F 89% 29.86 in 6.2 mi South 8.1 mph - N/A   Scattered Clouds
6:30 AM 75.2 °F - 71.6 °F 89% 29.86 in 6.2 mi SSE 8.1 mph - N/A   Mostly Cloudy
7:00 AM 77 °F - 72 °F 79% 29.89 in - South 8.1 mph - -  
7:00 AM 77.0 °F - 71.6 °F 83% 29.89 in 6.2 mi South 8.1 mph - N/A   Mostly Cloudy
7:30 AM 77.0 °F - 71.6 °F 83% 29.89 in 6.2 mi South 8.1 mph - N/A   Mostly Cloudy
8:00 AM 78.8 °F - 71.6 °F 78% 29.89 in 6.2 mi South 8.1 mph - N/A   Mostly Cloudy
8:15 AM 78.8 °F - 71.6 °F 78% 29.92 in 3.1 mi SSE 8.1 mph - N/A Rain Light Rain Showers
8:30 AM 78.8 °F - 73.4 °F 83% 29.92 in 6.2 mi South 8.1 mph - N/A   Mostly Cloudy
9:00 AM 80 °F - 73 °F 73% 29.93 in 16 mi South 6.9 mph - - Rain Light Rain Showers
9:00 AM 80.6 °F 85.4 °F 73.4 °F 79% 29.92 in 6.2 mi South 6.9 mph - N/A   Overcast
9:21 AM 77.0 °F - 73.4 °F 89% 29.92 in 3.7 mi South 6.9 mph - N/A Rain Light Rain Showers
9:30 AM 77.0 °F - 73.4 °F 89% 29.92 in 2.5 mi SSE 8.1 mph - N/A Rain Light Rain Showers
9:50 AM 78.8 °F - 73.4 °F 83% 29.92 in 6.2 mi South 4.6 mph - N/A   Mostly Cloudy
10:00 AM 79 °F - 74 °F 79% 29.94 in - South 5.8 mph - -  
10:00 AM 78.8 °F - 73.4 °F 83% 29.92 in 6.2 mi South 5.8 mph - N/A   Mostly Cloudy
10:30 AM 80.6 °F 84.6 °F 71.6 °F 74% 29.92 in 6.2 mi SE 6.9 mph - N/A   Mostly Cloudy
11:00 AM 82.4 °F 87.2 °F 71.6 °F 70% 29.92 in 6.2 mi SE 8.1 mph - N/A   Mostly Cloudy
11:30 AM 80.6 °F 84.6 °F 71.6 °F 74% 29.89 in 6.2 mi SE 9.2 mph - N/A   Mostly Cloudy
12:00 PM 76 °F - 74 °F 94% 29.90 in 19 mi East 6.9 mph - -   Partly Cloudy
12:00 PM 77.0 °F - 75.2 °F 94% 29.89 in 6.2 mi East 6.9 mph - N/A   Overcast
12:30 PM 82.4 °F 87.2 °F 71.6 °F 70% 29.89 in 6.2 mi ESE 12.7 mph - N/A   Mostly Cloudy
12:57 PM 77.0 °F - 73.4 °F 89% 29.86 in 6.2 mi SE 13.8 mph - N/A   Mostly Cloudy
1:00 PM 77 °F - 72 °F 82% 29.88 in - SE 13.8 mph - -  
1:00 PM 77.0 °F - 73.4 °F 89% 29.86 in 6.2 mi SE 13.8 mph - N/A   Mostly Cloudy
1:30 PM 80.6 °F 83.9 °F 69.8 °F 70% 29.86 in 6.2 mi SE 8.1 mph - N/A   Mostly Cloudy
2:00 PM 80.6 °F 84.6 °F 71.6 °F 74% 29.86 in 6.2 mi South 6.9 mph - N/A   Mostly Cloudy
2:30 PM 80.6 °F 83.9 °F 69.8 °F 70% 29.83 in 6.2 mi SSE 12.7 mph - N/A   Mostly Cloudy
3:00 PM 81 °F - 70 °F 62% 29.84 in 19 mi South 8.1 mph - -   Partly Cloudy
3:00 PM 80.6 °F 83.9 °F 69.8 °F 70% 29.83 in 6.2 mi South 8.1 mph - N/A   Overcast
3:30 PM 80.6 °F 83.9 °F 69.8 °F 70% 29.83 in 6.2 mi South 5.8 mph - N/A   Overcast
4:00 PM 81 °F - 71 °F 63% 29.84 in - South 5.8 mph - -  
4:00 PM 80.6 °F 83.9 °F 69.8 °F 70% 29.83 in 6.2 mi South 5.8 mph - N/A   Overcast
4:30 PM 80.6 °F 84.6 °F 71.6 °F 74% 29.83 in 6.2 mi South 4.6 mph - N/A   Overcast
5:00 PM 78.8 °F - 71.6 °F 78% 29.86 in 6.2 mi SSW 4.6 mph - N/A Rain Light Rain Showers
5:30 PM 75.2 °F - 71.6 °F 89% 29.86 in 6.2 mi South 9.2 mph - N/A Rain Light Rain Showers
6:00 PM 75 °F - 70 °F 79% 29.87 in - South 9.2 mph - -  
6:00 PM 75.2 °F - 69.8 °F 83% 29.86 in 6.2 mi South 9.2 mph - N/A Rain Light Rain Showers
6:30 PM 75.2 °F - 69.8 °F 83% 29.86 in 6.2 mi South 8.1 mph - N/A Rain Light Rain Showers
7:00 PM 75 °F - 71 °F 84% 29.91 in - SSE 10.4 mph - -  
7:00 PM 75.2 °F - 71.6 °F 89% 29.89 in 6.2 mi SSE 10.4 mph - N/A Rain Light Rain Showers
7:30 PM 75.2 °F - 71.6 °F 89% 29.89 in 6.2 mi South 8.1 mph - N/A Rain Light Rain Showers
8:00 PM 73.4 °F - 69.8 °F 88% 29.92 in 6.2 mi South 11.5 mph - N/A Rain Light Rain Showers
8:30 PM 75.2 °F - 69.8 °F 83% 29.92 in 6.2 mi South 11.5 mph - N/A Rain Light Rain
9:00 PM 74 °F - 70 °F 85% 29.92 in 12 mi South 11.5 mph - - Rain Light Rain
9:00 PM 73.4 °F - 69.8 °F 88% 29.92 in 6.2 mi South 11.5 mph - N/A Rain Light Rain
9:30 PM 73.4 °F - 71.6 °F 94% 29.92 in 6.2 mi South 10.4 mph - N/A   Mostly Cloudy
10:00 PM 74 °F - 70 °F 85% 29.95 in - South 9.2 mph - -  
10:00 PM 73.4 °F - 69.8 °F 88% 29.95 in 6.2 mi South 9.2 mph - N/A Rain Light Rain
10:30 PM 73.4 °F - 69.8 °F 88% 29.92 in 6.2 mi South 8.1 mph - N/A   Mostly Cloudy
11:00 PM 73.4 °F - 69.8 °F 88% 29.92 in 6.2 mi South 10.4 mph - N/A Rain Light Rain
11:30 PM 73.4 °F - 69.8 °F 88% 29.92 in 6.2 mi South 6.9 mph - N/A Rain Light Rain